Theta_e
316 316 317 317 317 318 318 317 316 316 316 315 316 316 317 318 323 328 332 334 335 339 338 345 353 346 346 348 346 344 348 349 348 350 351 349 347 346 346 347 347 350 351 350 351
316 316 316 317 317 318 318 318 317 317 316 316 316 316 317 318 322 327 334 332 337 339 338 342 339 344 344 343 343 345 348 349 348 348 349 348 347 347 347 347 348 349 350 351 350
317 316 316 316 317 317 318 318 318 317 317 316 316 316 317 318 324 333 334 333 338 339 339 338 339 338 343 344 342 344 347 348 348 347 347 348 348 348 348 348 347 350 350 349 352
318 317 317 316 316 317 318 318 318 318 317 316 316 316 317 317 335 331 333 335 338 339 339 338 339 340 343 344 342 345 346 347 348 347 347 344 343 347 347 348 348 349 349 348 348
319 319 318 317 317 316 317 318 318 318 318 317 316 316 317 327 328 329 330 334 336 338 337 338 339 343 344 343 343 346 346 347 347 347 346 344 344 345 346 348 348 349 349 348 348
320 320 319 318 317 316 317 318 319 318 318 317 316 316 318 329 326 328 328 334 335 335 336 338 340 342 342 344 345 343 346 348 348 347 349 349 348 346 347 348 348 349 348 347 348
321 320 320 319 318 316 316 318 319 319 318 318 316 316 323 326 323 327 329 330 335 336 338 338 339 341 342 342 343 343 347 346 348 349 344 344 349 348 347 348 348 349 348 347 348
322 321 321 320 318 317 316 317 319 319 318 318 317 316 326 324 324 322 327 330 332 337 337 338 339 340 341 342 341 343 347 354 346 351 343 339 347 348 347 348 349 349 349 348 348
322 322 322 321 319 317 315 317 320 319 318 318 320 326 326 323 322 322 325 330 331 332 334 337 338 339 341 341 342 345 349 348 349 346 349 350 354 350 348 348 349 350 349 349 349
322 322 322 322 320 318 315 318 320 319 320 318 318 325 325 324 323 323 325 329 332 334 335 337 338 340 341 342 345 348 350 347 348 346 344 351 354 351 349 349 349 349 349 349 349
321 322 322 322 321 317 318 325 328 328 326 326 327 323 324 324 324 324 324 328 330 333 337 337 339 340 341 341 343 345 347 348 345 340 340 342 348 353 350 349 349 348 348 348 349
321 322 322 322 321 316 324 327 325 324 325 326 326 327 324 324 324 324 324 325 330 332 336 337 339 339 340 341 343 342 342 342 343 341 340 345 346 344 347 350 349 348 348 348 349
320 321 322 322 318 324 324 324 323 324 325 325 324 325 325 324 325 326 324 326 330 332 334 337 338 339 339 340 342 341 340 343 344 343 340 342 344 343 350 351 350 349 348 348 349
315 320 322 322 325 324 326 325 324 324 326 327 327 325 325 324 325 325 325 326 329 331 333 336 337 339 338 339 341 340 339 341 342 340 340 342 344 345 345 349 351 350 350 347 349
312 317 320 321 322 324 326 323 324 324 330 328 327 324 324 325 326 325 325 326 328 330 332 335 336 337 338 339 339 340 340 341 341 341 340 339 344 351 345 351 342 347 350 349 348
310 315 319 323 322 323 323 323 325 327 327 327 327 326 325 324 325 326 325 326 326 329 330 330 332 335 337 338 339 339 339 339 340 339 339 343 343 351 351 349 339 341 344 350 349
313 314 317 319 326 324 323 324 328 327 327 328 327 326 325 326 325 326 326 326 326 326 328 330 330 332 334 335 338 338 338 340 341 340 340 344 345 346 346 344 341 343 350 350 350
317 317 316 319 322 324 323 327 330 328 326 328 328 328 327 327 326 325 326 326 326 327 328 328 329 330 332 334 335 335 335 339 344 339 343 347 345 346 345 343 344 344 349 350 353
319 323 322 326 322 324 324 327 328 328 327 326 327 327 327 327 328 326 325 326 327 327 327 327 329 331 331 332 333 333 336 336 336 334 335 339 344 342 342 344 345 345 348 349 354
319 324 326 326 325 324 325 325 327 328 326 326 326 327 327 328 327 327 326 327 327 328 328 328 328 331 332 331 332 331 332 333 334 337 337 335 346 349 353 353 353 348 349 350 354
322 327 327 325 325 326 328 326 326 326 326 325 324 326 329 330 329 327 327 328 328 328 328 328 328 329 331 331 331 331 330 331 332 333 336 337 347 348 354 348 350 344 352 352 354
326 330 326 325 327 328 329 329 326 326 326 325 325 326 328 329 329 329 328 328 329 329 328 329 328 328 329 332 332 331 331 331 333 332 333 337 341 347 347 343 343 340 353 354 355
328 328 325 325 330 330 329 328 328 326 326 325 326 325 326 327 328 329 331 329 327 327 327 328 327 327 328 330 332 331 331 331 331 331 335 336 346 344 343 341 339 345 354 356 355
328 332 328 326 327 328 329 327 327 326 325 324 327 327 326 326 328 329 332 330 329 328 325 326 326 327 326 329 331 331 330 331 330 332 331 331 344 346 344 345 346 344 356 356 355
329 331 329 332 331 330 329 329 328 327 326 327 326 327 329 328 327 328 329 331 331 327 327 327 325 327 328 328 329 330 331 330 331 331 333 333 337 348 344 345 354 355 356 355 355
319 323 323 325 328 330 326 329 328 329 330 331 332 328 329 328 328 328 334 337 333 331 330 328 327 327 327 328 328 328 330 330 331 331 330 331 332 334 348 354 356 357 356 355 355
315 317 321 325 328 330 331 333 332 333 330 329 331 333 334 328 330 331 333 335 337 336 335 330 328 327 328 328 328 328 328 329 330 330 331 330 332 334 346 357 357 358 357 356 354
Wind_Speed
11 11 10 10 10 10 10 11 12 11 11 10 8 8 8 7 7 8 7 8 8 7 7 4 13 15 13 15 5 9 12 13 17 12 6 13 13 13 12 9 8 20 28 28 27
11 11 11 11 11 11 11 11 12 12 11 10 9 8 7 8 8 13 13 11 10 9 7 11 17 15 14 11 8 14 11 16 15 14 13 14 12 12 12 10 18 23 27 30 27
12 12 12 12 12 12 12 12 12 12 11 10 9 7 7 6 7 13 17 12 9 9 11 12 16 22 24 10 15 16 14 15 13 11 14 12 10 16 10 12 16 24 26 24 30
13 13 14 13 13 13 13 13 12 12 11 10 9 7 7 5 6 7 14 12 9 9 14 17 23 24 12 5 9 9 17 14 11 12 10 11 11 11 15 13 19 23 23 21 19
13 14 14 15 14 14 13 13 12 12 11 10 9 8 5 7 15 8 11 13 11 8 14 17 24 8 14 12 8 16 12 13 10 10 14 15 13 11 12 14 19 23 22 19 19
14 14 15 15 15 15 14 13 13 12 11 10 8 8 5 14 3 4 5 11 11 10 13 16 19 9 13 18 15 5 13 16 13 11 15 11 3 11 11 17 21 22 21 17 17
14 15 15 15 15 15 14 14 12 11 10 10 8 9 10 17 5 8 8 10 13 14 15 13 10 15 20 4 3 7 28 28 9 13 9 21 9 10 15 18 22 21 20 17 17
14 15 15 16 16 15 14 14 12 11 9 8 7 8 10 6 14 12 12 13 14 14 15 13 8 16 19 2 7 13 23 10 24 22 14 22 8 14 19 21 21 20 18 17 17
15 15 15 16 16 15 13 13 12 11 9 7 4 5 15 11 16 18 15 15 16 17 16 15 12 18 23 11 12 17 12 11 13 12 19 12 6 17 21 20 20 19 18 18 15
15 15 15 15 15 15 11 11 12 12 8 7 10 8 20 14 10 13 15 13 16 18 19 18 17 14 17 14 7 13 7 22 25 13 10 12 15 19 24 21 19 19 19 17 17
15 14 14 14 13 13 8 9 8 2 10 16 3 17 1 5 5 11 13 14 16 18 18 22 14 16 21 17 14 21 29 32 19 6 8 13 2 15 19 21 22 19 19 18 19
15 14 13 13 11 5 8 9 5 8 12 18 24 20 16 7 10 17 16 20 20 19 19 18 19 21 22 8 15 7 14 11 8 4 6 14 16 29 29 20 20 19 21 19 20
15 14 12 10 6 5 7 5 7 11 9 19 25 25 23 17 17 17 21 24 19 20 21 21 21 20 19 20 8 11 15 6 9 17 8 8 5 11 14 17 17 17 20 21 19
15 13 11 7 3 6 4 5 8 8 6 13 16 15 21 21 16 22 23 23 21 20 23 21 23 23 15 20 10 12 12 9 16 10 13 10 11 7 6 3 4 16 19 23 21
15 12 9 9 6 3 6 8 9 5 6 13 14 8 14 18 7 23 20 23 22 21 16 22 24 22 21 21 16 16 19 5 10 14 17 22 4 4 15 5 17 20 22 21 26
13 12 7 5 7 7 11 10 7 6 10 9 11 10 14 22 24 12 24 22 24 22 20 20 26 23 21 20 14 13 19 17 13 11 13 8 11 4 6 9 17 39 41 24 27
12 11 8 8 4 6 8 7 6 9 4 9 11 13 15 17 19 17 21 20 18 17 20 20 23 23 17 24 16 18 17 12 12 12 7 6 3 7 9 23 26 32 29 22 28
12 10 8 9 8 8 6 8 8 12 20 5 6 3 14 18 18 22 16 19 23 23 14 19 18 22 12 16 16 21 20 14 16 14 4 4 5 5 13 44 40 14 22 25 34
8 5 3 4 6 5 9 9 12 16 14 6 10 10 14 14 15 20 21 20 21 25 23 19 22 18 25 19 20 21 18 21 18 19 16 12 3 13 11 16 5 10 22 24 36
6 3 4 5 5 4 8 15 19 16 8 10 11 19 14 16 12 15 19 19 22 24 25 24 20 21 21 21 19 19 20 16 12 17 18 15 11 6 20 10 6 4 16 20 30
2 6 4 2 6 9 9 13 16 15 2 8 15 20 13 17 16 15 19 17 19 21 23 22 22 20 16 17 16 14 17 18 17 12 12 14 4 19 25 20 11 4 14 20 23
7 2 3 6 9 12 10 16 16 16 2 6 15 14 16 16 11 12 18 13 15 13 18 19 14 17 22 14 18 16 18 19 13 14 15 15 2 17 23 9 2 5 17 21 24
9 3 2 7 6 8 14 13 11 11 10 15 10 13 15 13 10 13 19 7 12 8 9 8 14 16 22 19 13 13 15 21 20 16 17 15 3 13 18 17 6 16 23 24 26
7 3 7 8 15 14 13 13 7 13 11 19 14 13 14 12 13 15 16 4 6 7 12 10 16 16 16 16 15 21 18 21 20 14 15 17 9 13 26 27 33 31 27 26 28
6 7 14 6 9 8 10 11 14 6 12 11 14 15 16 15 14 16 17 17 8 7 7 12 18 17 18 20 21 19 18 19 19 23 18 18 6 17 19 19 30 29 26 28 28
10 7 15 18 16 10 8 10 15 9 10 10 14 15 16 16 17 12 14 16 15 12 11 13 15 15 18 19 20 20 17 15 21 20 20 23 21 17 21 31 26 33 32 30 30
13 8 9 12 15 7 9 10 11 18 14 6 11 15 18 3 16 19 19 22 23 8 10 15 13 13 16 16 19 20 19 17 15 16 16 18 19 15 6 19 29 32 31 31 32
Wind_Direction
12 8 5 2 359 356 354 348 349 349 347 343 333 318 304 288 258 248 252 252 267 290 313 324 265 267 255 264 343 324 76 58 67 86 117 124 88 83 115 114 67 124 141 146 143
4 1 357 354 351 347 347 342 343 343 346 340 333 318 305 291 261 253 244 258 254 278 296 283 309 243 264 324 185 91 69 58 66 76 75 78 116 143 123 110 111 117 127 152 151
354 353 350 347 345 342 340 337 337 336 342 340 330 317 303 295 282 240 225 241 245 269 277 279 286 279 276 192 77 87 101 95 65 78 95 122 144 149 167 131 125 128 138 152 156
346 344 341 339 338 336 335 333 331 330 335 338 325 315 296 253 233 196 208 222 229 257 279 282 278 262 234 179 108 100 88 90 89 89 99 90 75 63 61 102 129 142 147 155 162
339 337 335 333 331 330 329 327 325 324 327 331 323 314 290 256 258 252 225 209 223 242 264 282 297 353 290 85 132 121 120 105 106 103 80 72 81 98 101 117 133 144 154 160 170
335 333 330 328 326 324 322 321 320 319 319 325 318 310 288 252 174 207 202 216 213 233 259 272 312 328 303 121 168 140 147 144 144 115 106 90 107 108 122 133 139 151 160 169 171
332 330 328 325 322 319 315 314 313 313 312 314 312 306 272 242 239 226 229 226 229 236 249 265 295 305 297 227 174 169 50 10 151 146 83 60 341 132 147 148 152 162 168 163 173
326 329 327 323 320 316 309 305 305 305 302 299 299 301 255 246 229 234 226 231 231 237 246 278 295 286 285 336 162 252 101 177 274 117 139 126 229 150 160 162 164 169 173 170 174
326 328 326 323 321 315 308 299 297 293 286 279 295 280 258 237 252 234 223 230 231 238 244 253 268 270 276 247 221 5 19 283 246 145 161 176 247 159 173 174 171 174 178 180 179
322 325 325 323 323 319 313 301 290 278 275 253 245 268 246 237 232 215 213 231 242 228 234 234 246 255 256 241 134 186 57 291 269 167 198 183 158 164 179 177 175 180 176 185 183
321 323 324 324 325 326 335 327 295 220 220 231 275 228 86 200 175 211 216 219 229 242 228 225 236 238 251 265 142 190 178 207 233 147 229 273 265 120 186 190 176 183 175 186 186
320 321 322 322 329 334 342 324 18 326 294 256 249 245 247 232 259 227 214 217 215 235 222 231 225 243 255 221 269 279 267 246 23 140 233 106 198 106 248 201 187 183 174 190 188
320 320 318 322 337 8 316 305 321 327 269 275 232 229 227 232 246 240 203 213 222 225 236 227 236 224 261 273 225 257 271 117 161 264 276 290 188 180 171 194 193 194 192 191 189
323 319 316 311 329 305 298 313 323 319 275 246 191 223 218 217 242 233 209 217 228 232 229 240 239 258 217 261 268 241 275 321 315 289 285 211 286 165 294 170 291 210 202 195 189
325 314 313 305 290 303 323 319 314 288 279 132 159 140 189 199 258 206 223 210 232 228 225 235 242 245 256 236 225 261 283 197 281 293 286 284 191 255 271 357 333 279 220 206 178
324 311 299 308 280 315 308 309 299 236 246 162 142 198 216 208 241 203 209 213 226 241 249 246 249 241 249 257 259 260 268 276 279 271 271 3 15 131 172 210 194 250 261 197 171
317 300 281 249 166 285 312 292 230 241 156 168 190 193 206 209 220 223 195 210 218 225 238 243 246 258 238 243 226 246 251 261 248 252 261 75 97 164 110 279 231 219 217 186 163
314 295 276 248 244 281 294 247 253 236 250 59 355 215 218 225 198 225 198 223 216 228 226 231 228 240 222 255 253 228 249 254 255 260 176 312 236 166 104 263 217 170 161 171 147
328 340 291 310 222 240 251 232 229 264 346 15 281 233 253 237 252 209 202 226 226 220 238 240 234 231 223 218 234 253 250 244 274 279 278 242 182 136 165 358 238 152 150 161 151
333 254 218 214 205 213 241 258 276 323 356 331 288 286 249 208 223 232 216 221 228 224 227 247 259 244 216 212 215 237 259 251 230 254 272 273 205 118 81 283 2 296 151 153 147
333 222 166 208 187 223 243 252 263 264 211 283 288 304 286 295 201 217 246 226 220 231 225 232 254 264 271 198 213 220 241 259 278 280 276 263 140 151 153 178 172 264 160 159 152
301 277 159 169 219 227 245 249 272 292 40 263 278 294 306 321 317 295 267 219 229 243 237 218 249 252 259 238 206 232 254 236 248 258 266 281 221 171 162 133 213 151 173 163 159
299 20 171 192 254 260 234 242 291 313 275 266 260 261 275 290 294 283 284 46 34 217 255 227 236 250 254 236 201 242 229 259 246 242 257 276 127 174 125 110 292 240 178 161 155
292 258 148 206 263 286 299 317 260 238 255 286 302 285 283 262 269 276 283 271 133 265 329 300 276 238 245 244 245 209 225 242 251 256 244 251 168 153 167 166 197 211 175 165 160
292 357 9 287 323 302 291 315 298 272 213 229 249 258 271 277 259 260 249 282 187 197 248 258 256 265 264 258 269 273 231 212 239 267 277 284 271 198 184 185 166 156 164 166 161
350 350 334 301 288 268 259 262 271 289 291 306 313 267 261 236 265 278 335 316 285 193 211 240 249 264 273 266 267 271 270 261 222 225 255 272 276 298 119 140 155 161 168 171 161
352 331 306 294 287 302 316 312 296 317 299 280 301 264 301 290 338 337 307 299 296 292 262 217 230 235 252 255 252 261 257 261 260 269 236 239 258 270 176 159 161 162 168 172 167